Probability
0 0 0 0 0 0 0 0 0 0 0 1 4 9 17 30 46 63 76 84 88 87 77 58 44 42 49 61 75 84 91 96 98 98 96 96 94 91 89 86 85 84 83 80
0 0 0 0 0 0 0 0 0 0 0 0 1 4 11 20 35 52 67 77 83 85 80 68 56 53 57 65 73 82 89 94 96 95 95 95 94 92 90 88 85 80 75 72
0 0 0 0 0 0 0 0 0 0 0 0 0 1 3 7 15 26 39 52 62 69 72 70 68 67 68 71 76 82 88 93 94 93 94 95 95 93 92 90 84 74 65 60
0 0 0 0 0 0 0 0 0 0 0 0 0 0 0 1 3 7 14 23 32 40 47 53 59 64 67 71 79 84 89 93 94 94 93 94 95 95 93 89 79 66 53 47
0 0 0 0 0 0 0 0 0 0 0 0 0 0 0 0 0 2 4 8 12 17 23 29 36 42 49 56 65 75 84 91 93 93 93 94 95 94 91 82 69 56 44 35
0 0 0 0 0 0 0 0 0 0 0 0 0 0 0 0 0 0 1 2 3 6 8 11 15 20 26 31 39 51 65 76 83 86 88 89 89 89 84 74 62 52 41 32
0 0 0 0 0 0 0 0 0 0 0 0 0 0 0 0 0 0 0 0 1 1 2 2 4 6 9 13 18 29 42 56 68 73 75 76 77 78 76 68 59 50 39 31
0 0 0 0 0 0 0 0 0 0 0 0 0 0 0 0 0 0 0 0 0 0 0 0 0 1 2 4 6 13 25 39 51 57 60 62 62 64 64 59 51 42 32 25
0 0 0 0 0 0 0 0 0 0 0 0 0 0 0 0 0 0 0 0 0 0 0 0 0 0 0 0 1 5 13 24 34 42 47 47 45 44 44 41 35 27 20 13
0 0 0 0 0 0 0 0 0 0 0 0 0 0 0 0 0 0 0 0 0 0 0 0 0 0 0 0 0 2 6 13 20 28 32 30 25 24 23 21 16 12 7 4
0 0 0 0 0 0 0 0 0 0 0 0 0 0 0 0 0 0 0 0 0 0 0 0 0 0 0 0 0 2 5 8 12 17 18 16 12 10 11 8 4 2 1 0
0 0 0 0 0 0 0 0 0 0 0 0 0 0 0 0 0 0 0 0 0 0 0 0 0 0 0 0 0 1 4 6 7 8 9 7 4 4 4 2 0 0 0 0
0 0 0 0 0 0 0 0 0 0 0 0 0 0 0 0 0 0 0 0 0 0 0 0 0 0 0 0 0 1 2 3 3 3 3 2 1 1 1 0 0 0 0 0
0 0 0 0 0 0 0 0 0 0 0 0 0 0 0 0 0 0 0 0 0 0 0 0 0 0 0 0 0 0 1 1 1 1 1 0 0 0 0 0 0 0 0 0
0 0 0 0 0 0 0 0 0 0 0 0 0 0 0 0 0 0 0 0 0 0 0 0 0 0 0 0 0 0 0 0 0 0 0 0 0 0 0 0 0 0 0 0
0 0 0 0 0 0 0 0 0 0 0 0 0 0 0 0 0 0 0 0 0 0 0 0 0 0 0 0 0 0 0 0 0 0 0 0 0 0 0 0 0 0 0 0
0 0 0 0 0 0 0 0 0 0 0 0 0 0 0 0 0 0 0 0 0 0 0 0 0 0 0 0 0 0 0 0 0 0 0 0 0 0 0 0 0 0 0 0
0 0 0 0 0 0 0 0 0 0 0 0 0 0 0 0 0 0 0 0 0 0 0 0 0 0 0 0 0 0 0 0 0 0 0 0 0 0 0 0 0 0 0 0
0 0 0 0 0 0 0 0 0 0 0 0 0 0 0 0 0 0 0 0 0 0 0 0 0 0 0 0 0 0 0 0 0 0 0 0 0 0 0 0 0 0 0 0
0 0 0 0 0 0 0 0 0 0 0 0 0 0 0 0 0 0 0 0 0 0 0 0 0 0 0 0 0 0 0 0 0 0 0 0 0 0 0 0 0 0 0 0
0 0 0 0 0 0 0 0 0 0 0 0 0 0 0 0 0 0 0 0 0 0 0 0 0 0 0 0 0 0 0 0 0 0 0 0 0 0 0 0 0 0 0 0
0 0 0 0 0 0 0 0 0 0 0 0 0 0 0 0 0 0 0 0 0 0 0 0 1 1 0 0 0 0 0 0 0 0 0 0 0 0 0 0 0 0 0 0
0 0 0 0 0 0 0 0 0 0 0 0 0 0 0 0 0 0 0 0 0 0 0 1 2 2 1 0 0 0 0 0 0 0 0 0 0 0 0 0 0 0 0 0
0 0 0 0 0 0 0 0 0 0 0 0 0 0 0 0 0 0 1 1 0 0 0 2 4 4 2 1 0 0 0 0 0 0 0 0 0 0 0 0 0 0 0 0
0 0 0 0 0 0 0 0 0 0 0 0 0 0 0 0 0 0 1 2 1 0 0 2 4 4 3 2 1 0 0 0 0 0 0 0 0 0 0 0 0 0 0 0
0 0 0 0 0 0 0 0 0 0 0 0 0 0 0 0 0 0 1 2 2 1 1 2 4 4 2 2 2 1 0 0 0 0 0 0 0 0 0 0 0 0 0 0
Wind_Speed
4 4 1 3 3 3 2 4 4 0 2 4 3 3 3 6 6 6 5 4 3 2 1 1 3 5 7 8 9 10 10 10 9 8 8 8 9 8 7 6 7 6 5 4
6 3 4 2 2 4 4 4 3 3 0 5 5 5 1 3 5 6 7 7 6 4 3 2 1 2 4 6 8 9 11 11 11 10 8 7 7 7 7 6 5 5 5 4
1 4 2 1 3 3 2 3 3 5 5 8 9 10 8 5 3 5 6 7 7 7 6 5 4 3 3 4 6 7 8 9 11 11 8 6 5 6 6 7 6 7 6 5
2 1 2 3 1 5 3 2 6 8 11 10 7 12 8 7 5 4 5 7 7 7 7 7 6 5 5 5 5 6 7 7 8 10 10 12 10 10 10 7 6 6 6 6
2 3 5 6 3 6 6 5 9 12 14 15 14 14 9 7 7 3 5 6 7 7 7 7 7 7 7 7 6 6 6 6 7 9 10 11 11 10 6 6 7 7 6 6
3 3 5 4 2 3 5 8 11 11 12 15 10 11 10 4 4 3 3 4 6 6 7 6 6 6 6 7 7 6 6 7 7 7 8 10 11 10 8 8 7 7 5 5
2 3 3 4 6 4 6 9 8 7 8 5 2 8 6 5 4 1 1 3 5 6 7 8 8 8 8 8 8 7 7 7 7 8 8 8 9 9 10 9 8 7 6 5
4 2 2 1 4 6 5 8 8 8 9 11 9 9 2 4 3 3 4 5 6 7 7 8 9 9 9 9 9 8 8 8 8 7 6 5 5 5 5 7 6 6 5 5
4 2 3 0 3 6 6 6 7 10 14 13 8 5 3 5 6 7 7 8 8 8 8 9 10 10 10 10 9 9 9 8 7 6 5 4 2 2 2 2 3 4 4 4
5 7 3 4 5 3 6 7 6 7 8 10 9 9 4 5 6 6 7 8 8 8 9 9 9 9 9 9 8 7 7 7 6 5 3 1 1 1 1 2 2 2 4 4
7 8 6 6 8 8 5 6 7 8 8 10 11 7 3 4 6 7 9 9 8 8 9 9 8 8 8 7 6 5 5 5 3 2 1 1 2 2 2 2 3 2 2 3
5 9 10 9 1 3 8 9 9 10 11 11 13 11 2 5 6 9 11 11 9 8 8 8 7 7 6 6 4 3 3 2 1 1 2 3 2 3 2 2 2 1 1 2
2 7 11 10 7 7 8 10 11 12 12 13 16 12 1 5 10 12 12 11 9 7 7 6 6 6 5 4 3 2 1 2 1 1 2 3 2 2 2 2 2 2 2 3
5 10 14 16 14 14 12 13 12 14 14 16 18 20 16 16 16 15 12 10 9 7 6 6 5 5 4 3 3 3 1 0 1 1 2 3 3 3 3 3 3 3 4 4
5 11 14 16 16 17 18 18 18 18 19 21 22 22 19 17 16 13 11 9 8 8 7 6 5 4 4 5 4 4 3 2 2 2 3 4 5 6 5 5 5 5 5 6
5 10 14 16 17 17 19 20 20 21 21 21 22 21 17 14 11 10 9 9 9 9 8 6 6 5 6 6 6 6 5 4 4 4 5 5 7 8 7 7 7 6 6 6
8 9 12 14 13 13 13 11 11 13 14 16 18 17 15 15 13 12 9 8 9 9 8 7 7 7 7 7 6 6 5 4 5 5 5 6 8 9 8 8 8 7 7 7
8 9 7 10 9 9 5 6 9 13 15 15 15 15 16 16 13 10 9 9 9 8 8 7 7 7 7 7 7 6 6 5 5 5 6 7 9 9 9 8 8 7 6 7
5 6 7 7 11 11 9 7 9 12 15 14 13 13 13 12 9 11 9 8 8 8 7 7 7 7 8 8 8 7 7 6 6 6 6 8 9 10 10 9 9 7 7 7
5 6 8 9 11 9 7 11 9 11 12 8 11 13 14 12 12 10 4 4 7 8 7 7 7 8 8 8 8 8 8 7 7 6 6 8 9 10 10 10 9 8 7 7
6 7 9 11 11 8 7 11 13 12 12 19 20 20 19 17 15 16 12 9 8 8 8 9 9 9 9 9 9 9 9 8 7 6 6 7 8 8 9 9 9 9 8 8
8 7 6 7 8 4 12 15 13 16 20 22 22 22 22 21 19 18 17 13 11 10 10 11 10 10 9 9 10 10 9 8 7 7 8 8 8 8 9 9 9 9 10 10
5 6 7 7 8 13 15 16 17 19 20 21 21 22 21 21 20 19 18 15 13 12 11 11 12 11 10 11 11 11 9 8 8 8 9 9 9 8 9 10 11 10 9 9
5 4 7 10 9 14 16 18 20 21 21 21 21 21 20 20 20 19 16 15 13 12 12 12 14 13 12 12 12 11 9 9 9 10 9 9 9 9 9 8 9 9 10 9
9 8 8 10 10 13 13 19 22 22 21 21 20 19 19 19 18 18 16 15 13 11 11 13 14 14 14 14 13 12 10 10 11 11 10 10 10 9 9 8 6 7 8 6
9 8 6 6 12 11 12 17 20 21 21 21 20 20 19 18 18 17 16 15 13 11 10 13 15 15 15 15 14 13 12 12 12 10 10 9 9 8 8 9 8 7 4 7
Wind_Direction
197 230 19 14 334 329 291 269 258 350 4 283 275 296 14 19 21 29 23 12 5 338 308 248 235 233 228 222 221 220 223 216 213 215 217 219 225 229 233 237 245 249 251 254
201 114 48 49 154 207 223 243 233 186 252 289 282 270 134 46 43 36 33 29 23 20 29 18 310 250 239 231 230 229 225 222 219 220 220 226 232 235 228 224 223 226 234 239
277 62 41 154 158 197 203 282 315 304 287 243 267 253 190 157 114 81 66 55 45 32 19 10 358 334 296 269 257 251 245 238 235 232 227 226 225 231 226 220 217 216 212 210
241 145 271 259 272 293 262 345 300 288 282 280 275 285 251 181 167 109 73 62 53 40 28 17 4 353 336 317 301 289 277 266 257 246 237 230 228 231 229 221 214 204 203 206
222 257 263 266 295 295 317 318 289 285 280 278 265 266 271 178 207 136 76 57 45 34 24 16 6 354 345 333 321 306 293 281 267 257 249 243 242 240 232 215 207 205 199 199
290 259 272 291 276 286 294 274 267 257 261 264 271 277 278 205 195 143 85 47 28 16 7 3 353 345 340 334 326 313 301 290 278 266 257 249 246 241 230 214 204 198 189 185
254 217 190 249 249 216 282 299 290 265 244 273 35 280 281 91 136 157 353 349 349 346 341 339 337 337 332 328 326 316 306 296 289 278 268 261 255 246 236 219 205 196 185 184
290 223 149 262 305 318 322 305 306 306 305 310 292 265 325 127 177 216 258 283 296 303 311 316 318 320 319 318 317 313 307 300 296 287 279 274 266 257 243 220 205 191 183 177
293 299 139 201 298 301 298 296 324 290 281 279 270 260 244 181 217 234 252 265 276 288 299 302 306 311 312 311 311 310 306 303 299 290 277 263 251 253 245 192 185 175 162 159
295 290 235 183 219 202 296 311 274 277 293 290 281 275 264 191 235 256 272 283 289 290 293 300 303 305 309 308 308 308 306 304 304 301 284 225 152 136 145 133 119 134 142 148
274 279 265 219 247 287 257 257 278 285 283 288 293 301 24 280 281 291 299 302 296 294 299 303 304 305 305 302 302 307 310 310 321 328 4 61 83 89 94 94 96 105 142 165
275 282 284 276 260 279 275 276 269 273 278 266 275 286 319 259 272 287 294 297 295 293 298 302 303 302 299 296 298 303 325 346 13 39 82 79 73 90 108 113 100 116 138 170
272 270 276 265 203 202 233 246 258 269 273 271 272 277 302 242 267 280 284 288 286 281 287 294 297 298 296 291 281 270 340 4 33 84 81 92 106 114 120 122 133 140 136 141
262 266 274 284 297 302 281 269 257 260 267 273 272 282 291 295 298 298 292 284 277 275 275 281 288 286 279 264 252 249 227 258 58 91 113 137 141 150 156 155 151 142 143 140
250 271 276 280 287 287 284 281 275 261 261 272 282 287 295 304 308 304 295 283 274 273 272 272 272 268 254 238 227 234 239 226 206 200 191 175 164 159 159 157 154 150 150 145
252 282 287 284 282 281 279 275 272 270 268 268 274 279 286 296 303 296 282 272 273 278 273 265 254 249 240 235 232 234 240 241 235 222 204 182 171 163 162 161 158 153 146 135
261 272 288 285 293 293 275 276 280 278 273 272 275 284 296 301 299 294 286 276 277 281 275 261 251 244 235 232 233 238 242 247 250 240 206 179 175 167 162 163 159 151 146 137
267 272 268 285 295 268 295 328 298 293 290 290 287 289 295 298 300 290 274 271 276 276 267 258 249 241 230 225 225 235 244 246 245 233 206 182 173 164 160 163 156 149 147 141
243 252 271 280 286 286 295 316 321 307 298 301 306 310 309 313 295 270 250 240 255 266 261 255 243 235 224 221 221 227 238 243 243 230 203 181 174 165 165 164 157 153 151 142
189 231 265 276 288 289 335 17 349 303 288 356 344 329 320 311 291 303 321 236 235 236 236 233 227 222 216 216 216 226 237 239 238 226 199 179 172 169 168 165 160 154 150 143
245 242 256 277 277 278 7 359 327 301 332 341 324 315 307 302 297 304 302 275 248 232 221 215 215 212 212 209 211 227 238 240 233 212 188 174 168 167 165 160 157 156 155 146
295 287 280 280 276 297 10 342 333 320 318 313 309 305 300 299 297 293 290 280 259 238 220 208 204 206 204 203 208 224 234 234 220 202 188 175 170 168 160 161 160 161 155 151
261 307 313 298 297 332 339 329 328 324 316 312 308 304 300 296 296 294 291 285 267 244 226 207 202 202 198 198 207 222 225 217 211 202 189 175 170 169 166 168 165 165 170 173
285 326 289 289 295 330 335 343 341 334 325 319 314 309 305 300 297 296 293 289 276 249 225 209 202 199 197 198 204 216 216 206 209 202 188 176 173 175 174 177 176 177 180 179
335 321 304 289 330 340 350 353 345 340 339 338 334 329 325 318 311 305 299 294 285 262 232 212 204 201 197 195 199 205 204 201 206 200 190 184 184 182 176 183 177 190 182 180
14 8 345 345 351 325 338 340 341 340 340 341 341 340 340 338 332 325 315 308 299 278 244 220 211 204 197 192 195 197 196 199 204 199 195 191 188 183 185 176 163 60 81 105